EW6393 Weather Reports


Display with metric or nautical units.
time (UTC)temp
F
wind
direction
speed
MPH
gust
MPH
rain 1hr
in
rain 24hr
in
rain mn
in
humidity
%
barometer
mb
20200707122322 79 153 1.0 14.0 0.00 0.00 0.00 12 1012.2
20200707121820 79 145 3.0 14.0 0.00 0.00 0.00 12 1012.1
20200707121317 79 139 3.0 9.0 0.00 0.00 0.00 12 1012.1
20200707120817 79 187 2.0 7.0 0.00 0.00 0.00 13 1012.0
20200707120314 79 186 3.0 13.0 0.00 0.00 0.00 12 1011.9
20200707115812 80 160 3.0 13.0 0.00 0.00 0.00 12 1012.0
20200707115328 80 156 1.0 8.0 0.00 0.00 0.00 11 1011.9
20200707114825 80 262 3.0 10.0 0.00 0.00 0.00 11 1011.9
20200707114323 80 173 3.0 10.0 0.00 0.00 0.00 12 1011.8
20200707113820 80 58 1.0 10.0 0.00 0.00 0.00 12 1011.9
20200707113322 79 169 2.0 7.0 0.00 0.00 0.00 12 1011.9
20200707112818 79 143 1.0 6.0 0.00 0.00 0.00 12 1011.9
20200707112315 79 221 2.0 6.0 0.00 0.00 0.00 12 1011.8
20200707111813 79 141 0.0 6.0 0.00 0.00 0.00 13 1011.8
20200707111309 80 160 1.0 3.0 0.00 0.00 0.00 13 1011.9
20200707110826 80 155 0.0 3.0 0.00 0.00 0.00 12 1011.8
20200707110324 81 155 1.0 6.0 0.00 0.00 0.00 11 1011.7
20200707105824 81 207 3.0 15.0 0.00 0.00 0.00 11 1011.7
20200707105322 81 132 1.0 15.0 0.00 0.00 0.00 12 1011.6
20200707104817 80 142 0.0 7.0 0.00 0.00 0.00 12 1011.9
20200707104315 80 148 1.0 5.0 0.00 0.00 0.00 12 1011.8
20200707103812 80 155 0.0 6.0 0.00 0.00 0.00 13 1011.9
20200707103309 81 5 0.0 9.0 0.00 0.00 0.00 14 1011.9
20200707102826 80 136 2.0 9.0 0.00 0.00 0.00 12 1012.0
20200707102325 80 149 0.0 5.0 0.00 0.00 0.00 13 1012.1
20200707101823 81 207 1.0 5.0 0.00 0.00 0.00 13 1011.9
20200707101321 81 133 1.0 4.0 0.00 0.00 0.00 13 1012.1
20200707100818 81 319 0.0 8.0 0.00 0.00 0.00 13 1011.9
20200707100315 82 146 1.0 8.0 0.00 0.00 0.00 12 1012.0
20200707095812 82 140 2.0 8.0 0.00 0.00 0.00 13 1011.9
20200707095313 82 89 2.0 8.0 0.00 0.00 0.00 12 1011.9
20200707094810 82 256 3.0 8.0 0.00 0.00 0.00 12 1011.9
20200707094327 82 148 3.0 8.0 0.00 0.00 0.00 12 1011.9
20200707093824 82 138 1.0 8.0 0.00 0.00 0.00 12 1011.9
20200707093321 82 160 3.0 6.0 0.00 0.00 0.00 12 1011.8
20200707092818 82 193 3.0 7.0 0.00 0.00 0.00 12 1012.0
20200707092315 82 207 2.0 7.0 0.00 0.00 0.00 12 1012.1
20200707091816 82 166 1.0 8.0 0.00 0.00 0.00 12 1012.0
20200707091313 82 162 0.0 8.0 0.00 0.00 0.00 13 1011.9
20200707090810 82 120 2.0 7.0 0.00 0.00 0.00 12 1012.1
20200707090326 82 147 2.0 7.0 0.00 0.00 0.00 12 1012.0
20200707085822 83 162 1.0 7.0 0.00 0.00 0.00 12 1011.9
20200707085320 82 163 3.0 7.0 0.00 0.00 0.00 12 1011.8
20200707084816 83 111 1.0 7.0 0.00 0.00 0.00 12 1011.9
20200707084318 83 150 2.0 6.0 0.00 0.00 0.00 12 1011.9
20200707083814 83 195 1.0 6.0 0.00 0.00 0.00 12 1011.8
20200707083312 83 143 0.0 8.0 0.00 0.00 0.00 12 1011.8
20200707082829 83 140 2.0 10.0 0.00 0.00 0.00 12 1012.0
20200707082325 83 115 2.0 7.0 0.00 0.00 0.00 12 1011.7
20200707081822 83 150 2.0 8.0 0.00 0.00 0.00 12 1011.8
20200707081319 84 153 3.0 8.0 0.00 0.00 0.00 12 1011.9
20200707080820 84 140 2.0 8.0 0.00 0.00 0.00 13 1011.9
20200707080317 84 153 3.0 9.0 0.00 0.00 0.00 12 1011.9
20200707075814 85 153 4.0 8.0 0.00 0.00 0.00 12 1012.0
20200707075311 85 165 3.0 11.0 0.00 0.00 0.00 12 1012.0
20200707074828 85 163 4.0 12.0 0.00 0.00 0.00 11 1011.9
20200707074325 84 124 7.0 12.0 0.00 0.00 0.00 12 1011.9
20200707073822 84 143 3.0 11.0 0.00 0.00 0.00 13 1011.9
20200707073323 84 150 4.0 12.0 0.00 0.00 0.00 14 1011.9
20200707072820 83 173 5.0 11.0 0.00 0.00 0.00 15 1011.8
20200707072317 82 131 1.0 5.0 0.00 0.00 0.00 16 1011.8
20200707071814 83 148 2.0 10.0 0.00 0.00 0.00 16 1011.9
20200707071311 83 145 2.0 10.0 0.00 0.00 0.00 16 1011.8
20200707070828 83 158 4.0 9.0 0.00 0.00 0.00 15 1011.8
20200707070325 83 153 2.0 10.0 0.00 0.00 0.00 16 1011.7
20200707065824 84 163 3.0 10.0 0.00 0.00 0.00 16 1011.7
20200707065323 85 212 0.0 9.0 0.00 0.00 0.00 15 1011.6
20200707064820 85 176 4.0 12.0 0.00 0.00 0.00 14 1011.4
20200707064318 85 94 5.0 12.0 0.00 0.00 0.00 13 1011.3
20200707063815 85 118 4.0 9.0 0.00 0.00 0.00 15 1011.4
20200707063312 84 129 3.0 7.0 0.00 0.00 0.00 16 1011.4
20200707062828 84 142 3.0 7.0 0.00 0.00 0.00 16 1011.3
20200707062310 84 143 3.0 5.0 0.00 0.00 0.00 17 1011.3
20200707061827 83 169 1.0 5.0 0.00 0.00 0.00 18 1011.3
20200707061324 83 89 2.0 5.0 0.00 0.00 0.00 19 1011.3
20200707060821 82 85 2.0 4.0 0.00 0.00 0.00 20 1011.3
20200707060318 81 150 1.0 4.0 0.00 0.00 0.00 21 1011.3
20200707055814 80 158 2.0 5.0 0.00 0.00 0.00 22 1011.4
20200707055311 78 120 1.0 3.0 0.00 0.00 0.00 24 1011.4
20200707054812 77 96 1.0 2.0 0.00 0.00 0.00 27 1011.4
20200707054329 77 150 0.0 2.0 0.00 0.00 0.00 27 1011.4
20200707053826 77 150 0.0 0.0 0.00 0.00 0.00 28 1011.6
20200707053322 77 76 0.0 0.0 0.00 0.00 0.00 29 1011.4
20200707052819 78 72 0.0 0.0 0.00 0.00 0.00 28 1011.4
20200707052316 78 72 0.0 2.0 0.00 0.00 0.00 27 1011.3
20200707051814 78 72 1.0 2.0 0.00 0.00 0.00 28 1011.3
20200707051315 78 108 0.0 1.0 0.00 0.00 0.00 28 1011.4
20200707050812 79 108 1.0 1.0 0.00 0.00 0.00 27 1011.3
20200707050309 79 78 0.0 2.0 0.00 0.00 0.00 27 1011.3
20200707045826 80 78 1.0 2.0 0.00 0.00 0.00 26 1011.2
20200707045322 79 259 1.0 2.0 0.00 0.00 0.00 25 1011.2
20200707044819 79 297 0.0 0.0 0.00 0.00 0.00 27 1011.1
20200707044316 80 297 0.0 1.0 0.00 0.00 0.00 25 1011.1
20200707043817 81 297 0.0 1.0 0.00 0.00 0.00 25 1011.1
20200707043314 81 82 0.0 1.0 0.00 0.00 0.00 25 1011.0
20200707042811 81 82 0.0 2.0 0.00 0.00 0.00 25 1011.0
20200707042328 81 307 0.0 2.0 0.00 0.00 0.00 24 1011.0
20200707041825 82 74 1.0 2.0 0.00 0.00 0.00 25 1011.0
20200707041322 82 258 0.0 3.0 0.00 0.00 0.00 24 1010.9
20200707040819 83 319 0.0 2.0 0.00 0.00 0.00 23 1010.9
20200707040320 84 293 0.0 2.0 0.00 0.00 0.00 23 1010.9
20200707035817 83 319 1.0 3.0 0.00 0.00 0.00 22 1010.8
20200707035314 84 11 0.0 4.0 0.00 0.00 0.00 23 1010.9
20200707034811 85 316 1.0 5.0 0.00 0.00 0.00 22 1010.8
20200707034328 87 282 1.0 6.0 0.00 0.00 0.00 21 1010.9
20200707033826 87 105 1.0 8.0 0.00 0.00 0.00 18 1010.8
20200707033323 87 141 2.0 6.0 0.00 0.00 0.00 18 1010.8
20200707032825 87 80 3.0 8.0 0.00 0.00 0.00 18 1010.8
20200707032321 87 90 3.0 5.0 0.00 0.00 0.00 19 1010.8
20200707031818 87 84 3.0 6.0 0.00 0.00 0.00 19 1010.8
20200707031315 87 73 2.0 6.0 0.00 0.00 0.00 19 1010.8
20200707030811 86 79 3.0 6.0 0.00 0.00 0.00 19 1010.8
20200707030309 86 83 2.0 4.0 0.00 0.00 0.00 20 1010.8
20200707025809 85 90 0.0 1.0 0.00 0.00 0.00 21 1010.9
20200707025326 86 33 0.0 1.0 0.00 0.00 0.00 21 1011.1
20200707024824 87 33 0.0 4.0 0.00 0.00 0.00 20 1011.1
20200707024322 88 18 0.0 4.0 0.00 0.00 0.00 20 1011.2
20200707023818 89 84 1.0 3.0 0.00 0.00 0.00 20 1011.3
20200707023315 90 122 0.0 2.0 0.00 0.00 0.00 19 1011.3
20200707022812 92 98 0.0 1.0 0.00 0.00 0.00 18 1011.4
20200707022313 95 336 0.0 0.0 0.00 0.00 0.00 18 1011.4
20200707021810 97 284 0.0 0.0 0.00 0.00 0.00 16 1011.4
20200707021329 98 284 0.0 0.0 0.00 0.00 0.00 16 1011.6
20200707020825 99 283 0.0 0.0 0.00 0.00 0.00 17 1011.6
20200707020322 100 282 0.0 0.0 0.00 0.00 0.00 16 1011.6
20200707015818 99 283 0.0 0.0 0.00 0.00 0.00 15 1011.6
20200707015315 98 283 0.0 0.0 0.00 0.00 0.00 16 1011.6
20200707014816 97 282 0.0 1.0 0.00 0.00 0.00 14 1011.6
20200707014313 97 329 0.0 1.0 0.00 0.00 0.00 14 1011.6
20200707013810 97 329 0.0 1.0 0.00 0.00 0.00 15 1011.7
20200707013327 97 329 0.0 1.0 0.00 0.00 0.00 15 1011.7
20200707012824 97 297 0.0 1.0 0.00 0.00 0.00 15 1011.8
20200707012321 96 297 0.0 1.0 0.00 0.00 0.00 15 1011.8
20200707011818 96 5 0.0 1.0 0.00 0.00 0.00 15 1011.8
20200707011319 96 284 1.0 3.0 0.00 0.00 0.00 15 1011.9
20200707010816 96 333 1.0 3.0 0.00 0.00 0.00 15 1012.0
20200707010314 95 281 1.0 4.0 0.00 0.00 0.00 14 1012.1
20200707005810 96 305 2.0 4.0 0.00 0.00 0.00 15 1012.1
20200707005327 96 277 1.0 4.0 0.00 0.00 0.00 15 1012.1
20200707004824 97 359 1.0 4.0 0.00 0.00 0.00 15 1012.1
20200707004322 97 300 0.0 2.0 0.00 0.00 0.00 15 1012.2
20200707003823 97 308 0.0 3.0 0.00 0.00 0.00 17 1012.2
20200707003320 97 288 1.0 3.0 0.00 0.00 0.00 16 1012.3
20200707002816 97 276 0.0 4.0 0.00 0.00 0.00 15 1012.3
20200707002314 96 314 1.0 4.0 0.00 0.00 0.00 15 1012.4
20200707001810 96 298 0.0 4.0 0.00 0.00 0.00 16 1012.4
20200707001327 96 271 2.0 4.0 0.00 0.00 0.00 15 1012.4
20200707000824 96 333 1.0 4.0 0.00 0.00 0.00 16 1012.6
20200707000325 96 263 1.0 4.0 0.00 0.00 0.00 14 1012.7
20200706235822 96 267 1.0 4.0 0.00 0.00 0.00 14 1012.8
20200706235319 97 263 1.0 5.0 0.00 0.00 0.00 15 1012.9
20200706234816 97 298 1.0 5.0 0.00 0.00 0.00 16 1012.9
20200706234313 97 294 0.0 4.0 0.00 0.00 0.00 16 1012.8
20200706233810 98 307 1.0 4.0 0.00 0.00 0.00 14 1012.9
20200706233328 97 82 0.0 2.0 0.00 0.00 0.00 14 1012.9
20200706232809 97 66 0.0 3.0 0.00 0.00 0.00 15 1013.1
20200706232326 97 58 1.0 4.0 0.00 0.00 0.00 16 1013.1
20200706231825 97 176 0.0 4.0 0.00 0.00 0.00 17 1013.2
20200706231321 96 290 1.0 3.0 0.00 0.00 0.00 16 1013.2
20200706230819 96 349 1.0 4.0 0.00 0.00 0.00 17 1013.2
20200706230316 96 285 0.0 5.0 0.00 0.00 0.00 15 1013.3
20200706225812 95 288 1.0 5.0 0.00 0.00 0.00 16 1013.4
20200706225313 95 302 2.0 5.0 0.00 0.00 0.00 16 1013.3
20200706224810 95 9 1.0 11.0 0.00 0.00 0.00 18 1013.5
20200706224327 95 354 3.0 11.0 0.00 0.00 0.00 18 1013.4
20200706223824 95 285 3.0 7.0 0.00 0.00 0.00 16 1013.5
20200706223321 96 307 1.0 4.0 0.00 0.00 0.00 16 1013.4
20200706222818 95 263 1.0 5.0 0.00 0.00 0.00 14 1013.5
20200706222315 95 283 2.0 5.0 0.00 0.00 0.00 18 1013.6
20200706221816 95 233 1.0 8.0 0.00 0.00 0.00 18 1013.7
20200706221313 95 330 4.0 8.0 0.00 0.00 0.00 20 1013.8
20200706220810 95 290 3.0 7.0 0.00 0.00 0.00 19 1013.8
20200706220327 95 302 3.0 8.0 0.00 0.00 0.00 17 1013.8
20200706215824 95 297 2.0 11.0 0.00 0.00 0.00 18 1013.7
20200706215321 95 281 5.0 12.0 0.00 0.00 0.00 16 1013.9
20200706214818 95 287 2.0 5.0 0.00 0.00 0.00 18 1013.9
20200706214320 95 243 2.0 5.0 0.00 0.00 0.00 18 1014.1
20200706213818 95 294 0.0 3.0 0.00 0.00 0.00 18 1014.0
20200706213315 95 249 1.0 6.0 0.00 0.00 0.00 17 1014.1
20200706212812 95 256 3.0 7.0 0.00 0.00 0.00 15 1014.0
20200706212309 95 299 2.0 7.0 0.00 0.00 0.00 16 1014.1
20200706211826 95 259 2.0 6.0 0.00 0.00 0.00 16 1014.2
20200706211323 95 294 2.0 4.0 0.00 0.00 0.00 16 1014.3
20200706210824 94 271 0.0 5.0 0.00 0.00 0.00 16 1014.4
20200706210321 95 278 2.0 5.0 0.00 0.00 0.00 14 1014.5
20200706205818 95 291 0.0 4.0 0.00 0.00 0.00 16 1014.7
20200706205314 95 4 2.0 4.0 0.00 0.00 0.00 15 1014.8
20200706204812 94 274 0.0 4.0 0.00 0.00 0.00 15 1014.9
20200706204328 94 308 2.0 3.0 0.00 0.00 0.00 16 1015.0
20200706203809 94 300 0.0 5.0 0.00 0.00 0.00 15 1015.1
20200706203326 94 187 0.0 4.0 0.00 0.00 0.00 17 1015.1
20200706202823 94 252 1.0 4.0 0.00 0.00 0.00 15 1015.2
20200706202320 94 262 2.0 4.0 0.00 0.00 0.00 17 1015.3
20200706201817 94 278 0.0 1.0 0.00 0.00 0.00 18 1015.3
20200706201314 93 290 0.0 5.0 0.00 0.00 0.00 20 1015.4
20200706200811 93 277 2.0 5.0 0.00 0.00 0.00 18 1015.5
20200706200312 93 152 0.0 4.0 0.00 0.00 0.00 17 1015.6
20200706195829 94 293 1.0 3.0 0.00 0.00 0.00 18 1015.6
20200706195325 93 252 0.0 3.0 0.00 0.00 0.00 18 1015.7
20200706194822 93 138 0.0 3.0 0.00 0.00 0.00 17 1015.8
20200706194319 92 297 1.0 3.0 0.00 0.00 0.00 17 1015.9
20200706193816 92 314 1.0 3.0 0.00 0.00 0.00 17 1016.0
20200706193313 92 134 1.0 2.0 0.00 0.00 0.00 17 1016.1
20200706192814 92 142 0.0 6.0 0.00 0.00 0.00 20 1016.3
20200706192311 91 157 1.0 6.0 0.00 0.00 0.00 21 1016.3
20200706191828 91 321 2.0 4.0 0.00 0.00 0.00 20 1016.3
20200706191325 91 294 0.0 2.0 0.00 0.00 0.00 19 1016.3
20200706190822 91 48 0.0 2.0 0.00 0.00 0.00 23 1016.5
20200706190320 91 267 0.0 2.0 0.00 0.00 0.00 21 1016.5
20200706185815 91 276 1.0 2.0 0.00 0.00 0.00 22 1016.5
20200706185316 90 102 0.0 2.0 0.00 0.00 0.00 23 1016.7
20200706184813 89 257 0.0 1.0 0.00 0.00 0.00 23 1016.7
20200706184310 89 257 0.0 3.0 0.00 0.00 0.00 20 1016.7
20200706183827 88 153 0.0 5.0 0.00 0.00 0.00 21 1016.7
20200706183324 88 150 3.0 4.0 0.00 0.00 0.00 19 1016.8
20200706182821 88 287 0.0 3.0 0.00 0.00 0.00 22 1016.9
20200706182318 87 299 1.0 3.0 0.00 0.00 0.00 22 1016.9
20200706181819 88 285 1.0 2.0 0.00 0.00 0.00 23 1017.0
20200706181316 88 281 0.0 1.0 0.00 0.00 0.00 24 1017.0
20200706180813 87 89 0.0 3.0 0.00 0.00 0.00 22 1017.0
20200706180310 87 271 1.0 3.0 0.00 0.00 0.00 25 1017.1
20200706175827 86 261 0.0 3.0 0.00 0.00 0.00 25 1017.1
20200706175324 86 94 0.0 2.0 0.00 0.00 0.00 23 1017.1
20200706174821 86 271 1.0 2.0 0.00 0.00 0.00 24 1017.1
20200706174322 86 293 0.0 3.0 0.00 0.00 0.00 24 1017.2
20200706173819 86 314 1.0 3.0 0.00 0.00 0.00 23 1017.2
20200706173316 85 278 0.0 3.0 0.00 0.00 0.00 24 1017.2
20200706172813 85 262 1.0 4.0 0.00 0.00 0.00 24 1017.2
20200706172310 85 285 1.0 3.0 0.00 0.00 0.00 26 1017.2
20200706171827 85 305 0.0 2.0 0.00 0.00 0.00 27 1017.2
20200706171324 84 294 1.0 2.0 0.00 0.00 0.00 26 1017.2
20200706170825 84 315 0.0 1.0 0.00 0.00 0.00 29 1017.2
20200706170322 84 328 0.0 1.0 0.00 0.00 0.00 31 1017.2
20200706165819 83 290 0.0 1.0 0.00 0.00 0.00 28 1017.3
20200706165315 83 270 0.0 2.0 0.00 0.00 0.00 34 1017.2
20200706164812 83 283 0.0 2.0 0.00 0.00 0.00 31 1017.3
20200706164310 83 295 0.0 2.0 0.00 0.00 0.00 34 1017.3
20200706163826 82 252 0.0 1.0 0.00 0.00 0.00 35 1017.3
20200706163327 82 252 0.0 1.0 0.00 0.00 0.00 34 1017.3
20200706162824 82 274 0.0 1.0 0.00 0.00 0.00 35 1017.2
20200706162322 82 277 0.0 2.0 0.00 0.00 0.00 34 1017.3
20200706161818 82 142 0.0 2.0 0.00 0.00 0.00 35 1017.2
20200706161315 81 316 0.0 1.0 0.00 0.00 0.00 34 1017.3
20200706160812 81 299 0.0 0.0 0.00 0.00 0.00 31 1017.3
20200706160309 81 300 0.0 1.0 0.00 0.00 0.00 30 1017.2
20200706155810 81 300 0.0 1.0 0.00 0.00 0.00 33 1017.3
20200706155327 81 309 0.0 1.0 0.00 0.00 0.00 32 1017.3
20200706154824 80 321 0.0 1.0 0.00 0.00 0.00 28 1017.3
20200706154322 79 321 0.0 0.0 0.00 0.00 0.00 28 1017.3
20200706153818 79 321 0.0 1.0 0.00 0.00 0.00 30 1017.4
20200706153315 79 321 0.0 1.0 0.00 0.00 0.00 28 1017.4
20200706152812 79 321 0.0 1.0 0.00 0.00 0.00 30 1017.4
20200706152313 79 320 0.0 0.0 0.00 0.00 0.00 32 1017.5
20200706151810 78 321 0.0 1.0 0.00 0.00 0.00 31 1017.4
20200706151327 77 321 0.0 1.0 0.00 0.00 0.00 33 1017.4
20200706150824 77 321 0.0 1.0 0.00 0.00 0.00 34 1017.3
20200706150321 77 327 0.0 1.0 0.00 0.00 0.00 33 1017.4
20200706145817 77 149 0.0 0.0 0.00 0.00 0.00 33 1017.4
20200706145314 77 136 0.0 0.0 0.00 0.00 0.00 32 1017.4
20200706144815 77 136 0.0 0.0 0.00 0.00 0.00 30 1017.4
20200706144312 77 136 0.0 0.0 0.00 0.00 0.00 28 1017.5
20200706143809 75 96 0.0 0.0 0.00 0.00 0.00 32 1017.4
20200706143327 75 96 0.0 0.0 0.00 0.00 0.00 32 1017.4
20200706142824 75 96 0.0 0.0 0.00 0.00 0.00 29 1017.5
20200706142322 75 96 0.0 0.0 0.00 0.00 0.00 31 1017.5
20200706141820 76 96 0.0 0.0 0.00 0.00 0.00 30 1017.4
20200706141321 76 96 0.0 0.0 0.00 0.00 0.00 30 1017.3
20200706140818 75 96 0.0 0.0 0.00 0.00 0.00 37 1017.3
20200706140315 74 96 0.0 0.0 0.00 0.00 0.00 37 1017.2
20200706135812 72 96 0.0 0.0 0.00 0.00 0.00 35 1017.2
20200706135309 72 96 0.0 0.0 0.00 0.00 0.00 38 1017.2
20200706134826 71 96 0.0 0.0 0.00 0.00 0.00 38 1017.2
20200706134323 69 96 0.0 0.0 0.00 0.00 0.00 37 1017.1
20200706133824 68 95 0.0 1.0 0.00 0.00 0.00 39 1017.1
20200706133321 67 95 0.0 1.0 0.00 0.00 0.00 41 1017.0
20200706132818 66 94 0.0 1.0 0.00 0.00 0.00 43 1017.0
20200706132315 65 95 0.0 1.0 0.00 0.00 0.00 41 1017.0
20200706131812 65 97 0.0 0.0 0.00 0.00 0.00 41 1017.0
20200706131309 65 97 0.0 0.0 0.00 0.00 0.00 42 1017.0
20200706130810 65 98 0.0 0.0 0.00 0.00 0.00 41 1017.0
20200706130327 64 114 0.0 0.0 0.00 0.00 0.00 40 1016.9
20200706125823 64 114 0.0 0.0 0.00 0.00 0.00 43 1016.9
20200706125320 64 114 0.0 0.0 0.00 0.00 0.00 43 1016.8
20200706124817 64 115 0.0 0.0 0.00 0.00 0.00 42 1016.8
20200706124314 64 115 0.0 0.0 0.00 0.00 0.00 41 1016.7
20200706123811 65 80 0.0 0.0 0.00 0.00 0.00 41 1016.7
20200706123312 65 81 0.0 0.0 0.00 0.00 0.00 40 1016.7
20200706122809 65 86 0.0 0.0 0.00 0.00 0.00 40 1016.7